{"data":{"norad_id":61869,"intl_designator":"2024-203A","name":"2024-203A","alt_names":[],"object_type":"PAYLOAD","status":"ACTIVE","operator":null,"country":"PRC","launch_date":"2024-11-09","launch_site_code":"JSC","launch_vehicle":null,"mission":null,"orbit_class":"UNKNOWN","rcs_meters":null,"size_class":null,"mass_kg":null,"dimensions":null,"purposes":[],"wikipedia_slug":null,"has_3d_model":false,"image_url":null,"decayed_at":null,"tle_current":{"epoch":"2026-05-25T04:30:17.322336Z","epoch_age_seconds":61995,"freshness":"FRESH","line1":"1 61869U 24203A   26145.18770049  .00012988  00000+0  45771-3 0  9999","line2":"2 61869  97.4205 215.5282 0012734  56.0479 304.1970 15.29338262 85448","mean_motion":15.29338262,"eccentricity":0.0012734,"inclination_deg":97.4205,"raan_deg":215.5282,"arg_perigee_deg":56.0479,"mean_anomaly_deg":304.197,"bstar":0.00045771,"rev_number":8544,"period_min":94.158371354473,"perigee_km":469.05893534122,"apogee_km":486.51960837038,"semimajor_km":6855.9262718558,"source":"CELESTRAK","updated_at":"2026-05-25T13:38:02.594308Z"}}}